Home > Weather > Pudukkottai > Past weeks

Flag for India Past Weather in Pudukkottai, Tamil Nadu, India — Yesterday and Last 2 Weeks

Now
81 °F

Fog.


Feels Like: 85 °F
Forecast: 78 / 89 °F
Wind: 7 mph from West

Location: Tiruchchirapalli

Current Time: Jul 28, 2016 at 8:33:13 AM

Latest Report: Jul 28, 2016 at 8:00 AM


Visibility: 3 mi

Pressure: 29.74 "Hg

Humidity: 79%

Dew Point: 73 °F

Location of PudukkottaiLocation

Past Weather in Pudukkottai — Graph

°F

Pudukkottai Temperature Yesterday

Maximum temperature yesterday: 95 °F (at 3:00 PM)
Minimum temperature yesterday: 77 °F (at 2:30 AM)
Average temperature yesterday: 83 °F

High & Low Weather Summary for the Past Weeks

 TemperatureHumidityPressure
High100 °F (Jul 13, 2:00 PM)100% (Jul 17, 8:30 PM)29.86 "Hg (Jul 17, 8:30 PM)
Low73 °F (Jul 15, 10:00 PM)29% (Jul 14, 5:30 PM)29.56 "Hg (Jul 14, 4:30 PM)
Average86 °F64%29.72 "Hg
* Reported Jul 13 7:30 AM — Jul 28 7:30 AM, Pudukkottai, Weather by CustomWeather, © 2016

Note: Actual official high and low records may vary slightly from our data, if they occured in-between our weather recording intervals... More about our weather records

Advertising

Pudukkottai Weather History for the Previous 24 Hours

Scroll right to see more
 ConditionsComfort  
Time TempWeatherWind HumidityBarometerVisibility
7:30 AM
Thu, Jul 28
81 °FFog.6 mph79%29.74 "Hg3 mi
7:00 AM79 °FFog.3 mph84%29.74 "Hg2 mi
6:30 AM77 °FFog.3 mph89%29.74 "Hg2 mi
6:00 AM77 °FFog.5 mph94%29.71 "Hg2 mi
5:30 AM77 °FFog.5 mph94%29.71 "Hg2 mi
5:00 AM77 °FFog.5 mph100%29.71 "Hg2 mi
4:30 AM77 °FFog.8 mph100%29.71 "Hg2 mi
4:00 AM77 °FFog.8 mph100%29.71 "Hg2 mi
3:30 AM77 °FFog.8 mph100%29.71 "Hg2 mi
3:00 AM77 °FFog.5 mph100%29.71 "Hg2 mi
2:30 AM77 °FFog.3 mph100%29.71 "Hg2 mi
2:00 AM77 °FFog.3 mph100%29.74 "Hg2 mi
1:30 AM77 °FFog.3 mph100%29.74 "Hg2 mi
1:00 AM77 °FFog.3 mph100%29.74 "Hg2 mi
12:30 AM77 °FFog.3 mph100%29.74 "Hg2 mi
12:00 AM77 °FFog.No wind100%29.77 "Hg2 mi
11:30 PM
Wed, Jul 27
77 °FFog.2 mph100%29.77 "Hg2 mi
11:00 PM77 °FFog.2 mph100%29.77 "Hg2 mi
10:30 PM77 °FThunderstorms. Partly cloudy.2 mph100%29.80 "Hg2 mi
10:00 PM77 °FThunderstorms. Partly cloudy.2 mph100%29.77 "Hg2 mi
9:30 PM77 °FThunderstorms. Partly cloudy.3 mph100%29.77 "Hg2 mi
9:00 PM77 °FStrong thunderstorms. Mostly cloudy.3 mph100%29.77 "Hg1 mi
8:30 PM77 °FStrong thunderstorms. Mostly cloudy.3 mph100%29.77 "Hg1 mi
8:00 PM81 °FThunderstorms. Partly cloudy.5 mph89%29.74 "Hg2 mi
7:30 PM82 °FThunderstorms. Partly cloudy.3 mph84%29.71 "Hg3 mi
7:00 PM86 °FThunderstorms. Broken clouds.6 mph70%29.68 "Hg4 mi
6:30 PM86 °FThunderstorms. Broken clouds.8 mph70%29.68 "Hg4 mi
6:00 PM88 °FThunderstorms. Broken clouds.13 mph66%29.68 "Hg4 mi
5:30 PM90 °FThunderstorms. Broken clouds.9 mph59%29.68 "Hg4 mi
5:00 PM93 °FScattered clouds.8 mph53%29.65 "HgN/A
4:30 PM93 °FScattered clouds.2 mph53%29.62 "HgN/A
4:00 PM95 °FScattered clouds.2 mph50%29.62 "HgN/A
3:30 PM95 °FScattered clouds.2 mph50%29.65 "HgN/A
3:00 PM95 °FScattered clouds.2 mph50%29.65 "HgN/A
2:30 PM93 °FScattered clouds.5 mph53%29.65 "HgN/A
2:00 PM93 °FScattered clouds.6 mph53%29.68 "HgN/A
1:30 PM93 °FScattered clouds.7 mph53%29.68 "HgN/A
1:00 PM91 °FScattered clouds.7 mph56%29.71 "HgN/A
12:30 PM91 °FPassing clouds.7 mph56%29.71 "HgN/A
12:00 PM90 °FPassing clouds.9 mph59%29.71 "HgN/A
11:30 AM90 °FPassing clouds.9 mph59%29.74 "HgN/A
11:00 AM88 °FPassing clouds.9 mph62%29.74 "HgN/A
10:30 AM86 °FPassing clouds.7 mph66%29.74 "HgN/A
10:00 AM84 °FPassing clouds.9 mph70%29.74 "Hg5 mi
9:30 AM84 °FPassing clouds.9 mph70%29.74 "Hg5 mi
9:00 AM82 °FPassing clouds.9 mph74%29.74 "Hg4 mi
8:30 AM82 °FPassing clouds.9 mph74%29.74 "Hg4 mi
8:00 AM81 °FPassing clouds.10 mph79%29.74 "Hg4 mi
Weather by CustomWeather, © 2016

See weather overviewHow to use our weather pages